Weather History for KMLE - September, 2013

Change the Weather History Date:

Wednesday, September 25, 2013

  Actual Average (KOMA) Record (KOMA)
Temperature  
Mean Temperature 66 °F 62 °F  
Max Temperature 80 °F 74 °F 93 °F (1998)
Min Temperature 53 °F 50 °F 33 °F (1926)
Degree Days  
Heating Degree Days 0 5  
Month to date heating degree days 63  
Since 1 July heating degree days 71  
Cooling Degree Days 2 2  
Month to date cooling degree days 108  
Year to date cooling degree days 1088  
Growing Degree Days 16 (Base 50)    
Moisture  
Dew Point 57 °F    
Average Humidity 76    
Maximum Humidity 99    
Minimum Humidity 45    
Precipitation  
Precipitation 0.00 in 0.08 in 3.53 in (1973)
Month to date precipitation 2.27  
Year to date precipitation 25.38  
Snow  
Snow 0.00 in 0.00 in - ()
Month to date snowfall 0.0  
Since 1 July snowfall 0.0  
Snow Depth -    
Sea Level Pressure  
Sea Level Pressure 29.85 in    
Wind  
Wind Speed 4 mph (SE)    
Max Wind Speed 17 mph    
Max Gust Speed 21 mph    
Visibility 8 miles    
Events      
T = Trace of Precipitation, MM = Missing Value Source: NWS Daily Summary

Daily Weather History Graph

Daily Weather History Graph

Search for Another Location

Airport or City:

Trip Planner

Search our weather history database for the weather conditions in past years. The results will help you decide how hot, cold, wet, or windy it might be!

Date:

Astronomy

Sep. 25, 2013 Rise Set
Actual Time 7:15 AM CDT 7:16 PM CDT
Civil Twilight 6:47 AM CDT 7:43 PM CDT
Nautical Twilight 6:15 AM CDT 8:15 PM CDT
Astronomical Twilight 5:42 AM CDT 8:48 PM CDT
Moon 11:20 PM CDT (9/25) 1:24 PM CDT (9/25)
Length of Visible Light 12h 55m
Length of Day
12h 00m
Waning Gibbous, 64% of the Moon is Illuminated
Sep 25
Waning Gibbous
Sep 26
Last Quarter
Oct 4
New
Oct 11
First Quarter
Oct 18
Full

Hourly Weather History & Observations

Time (CDT) Temp. Heat Index Dew Point Humidity Pressure Visibility Wind Dir Wind Speed Gust Speed Precip Events Conditions
12:15 AM 59.0 °F - 57.6 °F 95% 29.91 in 10.0 mi Calm Calm - N/A   Clear
12:35 AM 58.5 °F - 57.2 °F 96% 29.91 in 10.0 mi Calm Calm - N/A   Clear
12:55 AM 58.1 °F - 57.2 °F 97% 29.91 in 3.0 mi Calm Calm - N/A   Clear
1:15 AM 58.3 °F - 57.2 °F 96% 29.91 in 10.0 mi Calm Calm - N/A   Clear
1:35 AM 57.9 °F - 56.7 °F 96% 29.91 in 10.0 mi NW 3.5 mph - N/A   Clear
1:55 AM 57.6 °F - 56.3 °F 96% 29.91 in 7.0 mi Calm Calm - N/A   Clear
2:35 AM 56.8 °F - 56.1 °F 97% 29.90 in 7.0 mi Calm Calm - N/A   Clear
2:55 AM 56.3 °F - 55.8 °F 98% 29.90 in 3.0 mi Calm Calm - N/A   Clear
3:15 AM 56.3 °F - 55.6 °F 97% 29.90 in 2.5 mi Calm Calm - N/A   Clear
3:35 AM 55.8 °F - 55.4 °F 99% 29.90 in 1.2 mi Calm Calm - N/A   Mist
3:55 AM 55.4 °F - 55.0 °F 99% 29.90 in 3.0 mi Calm Calm - N/A   Clear
4:35 AM 55.2 °F - 54.7 °F 98% 29.90 in 7.0 mi Calm Calm - N/A   Clear
4:55 AM 55.8 °F - 55.4 °F 99% 29.91 in 7.0 mi Calm Calm - N/A   Clear
5:15 AM 55.0 °F - 54.5 °F 98% 29.91 in 3.0 mi Calm Calm - N/A   Clear
5:35 AM 54.5 °F - 54.0 °F 98% 29.90 in 2.5 mi Calm Calm - N/A   Clear
5:55 AM 54.5 °F - 53.8 °F 97% 29.90 in 1.5 mi Calm Calm - N/A   Mist
6:15 AM 54.1 °F - 53.8 °F 99% 29.91 in 1.2 mi Calm Calm - N/A   Mist
6:35 AM 54.0 °F - 53.6 °F 99% 29.90 in 1.8 mi Calm Calm - N/A   Mist
6:55 AM 53.8 °F - 53.6 °F 99% 29.91 in 1.2 mi Calm Calm - N/A   Mist
7:15 AM 53.8 °F - 53.4 °F 99% 29.91 in 1.5 mi Calm Calm - N/A   Mist
7:35 AM 53.8 °F - 53.6 °F 99% 29.91 in 1.8 mi Calm Calm - N/A   Mist
7:55 AM 54.0 °F - 53.6 °F 99% 29.91 in 3.0 mi Calm Calm - N/A   Clear
8:15 AM 54.9 °F - 54.5 °F 99% 29.91 in 4.0 mi Calm Calm - N/A   Clear
8:35 AM 57.2 °F - 56.8 °F 99% 29.91 in 7.0 mi Calm Calm - N/A   Clear
8:55 AM 59.4 °F - 57.7 °F 94% 29.92 in 10.0 mi Calm Calm - N/A   Clear
9:15 AM 61.5 °F - 58.5 °F 90% 29.91 in 10.0 mi Calm Calm - N/A   Clear
9:35 AM 63.3 °F - 59.0 °F 86% 29.91 in 10.0 mi SSE 4.6 mph - N/A   Clear
9:55 AM 64.6 °F - 59.5 °F 84% 29.92 in 10.0 mi SE 5.8 mph - N/A   Clear
10:15 AM 66.2 °F - 59.7 °F 80% 29.92 in 10.0 mi SSE 5.8 mph - N/A   Clear
10:35 AM 67.3 °F - 59.4 °F 76% 29.92 in 10.0 mi SE 5.8 mph - N/A   Clear
10:55 AM 69.4 °F - 59.7 °F 71% 29.92 in 10.0 mi SE 8.1 mph - N/A   Clear
11:15 AM 70.9 °F - 59.4 °F 67% 29.91 in 10.0 mi SE 5.8 mph - N/A   Clear
11:35 AM 72.3 °F - 59.2 °F 63% 29.90 in 10.0 mi SE 9.2 mph - N/A   Clear
11:55 AM 73.0 °F - 59.4 °F 62% 29.90 in 10.0 mi SSE 10.4 mph - N/A   Clear
12:15 PM 73.9 °F - 59.5 °F 61% 29.89 in 10.0 mi SE 11.5 mph - N/A   Clear
12:35 PM 75.2 °F - 57.9 °F 55% 29.89 in 10.0 mi SE 11.5 mph - N/A   Clear
1:15 PM 76.5 °F - 57.7 °F 52% 29.86 in 10.0 mi SE 13.8 mph 19.6 mph N/A   Clear
1:55 PM 77.4 °F - 56.5 °F 48% 29.84 in 10.0 mi SE 15.0 mph - N/A   Clear
2:15 PM 77.5 °F - 56.7 °F 48% 29.83 in 10.0 mi ESE 11.5 mph 19.6 mph N/A   Clear
2:35 PM 78.4 °F - 57.7 °F 49% 29.82 in 10.0 mi SE 9.2 mph - N/A   Clear
2:55 PM 79.0 °F - 57.7 °F 48% 29.81 in 10.0 mi SE 13.8 mph - N/A   Scattered Clouds
3:15 PM 78.6 °F - 56.7 °F 47% 29.81 in 10.0 mi ESE 12.7 mph 16.1 mph N/A   Scattered Clouds
3:55 PM 80.1 °F 80.4 °F 57.0 °F 45% 29.79 in 10.0 mi South 11.5 mph 18.4 mph N/A   Scattered Clouds
4:15 PM 80.1 °F 80.5 °F 57.6 °F 46% 29.79 in 10.0 mi SSE 13.8 mph 17.3 mph N/A   Scattered Clouds
4:35 PM 79.2 °F - 56.3 °F 45% 29.79 in 10.0 mi SE 15.0 mph - N/A   Clear
4:55 PM 79.9 °F - 57.2 °F 46% 29.78 in 10.0 mi SE 13.8 mph 18.4 mph N/A   Clear
5:15 PM 79.7 °F - 57.6 °F 47% 29.78 in 10.0 mi SSE 12.7 mph 17.3 mph N/A   Clear
5:35 PM 79.3 °F - 57.4 °F 47% 29.77 in 10.0 mi SE 15.0 mph 19.6 mph N/A   Clear
5:55 PM 79.0 °F - 57.7 °F 48% 29.77 in 10.0 mi SE 15.0 mph 18.4 mph N/A   Clear
6:15 PM 77.9 °F - 57.7 °F 50% 29.76 in 10.0 mi SE 17.3 mph 20.7 mph N/A   Clear
6:35 PM 77.2 °F - 58.1 °F 52% 29.76 in 10.0 mi SE 10.4 mph - N/A   Clear
6:55 PM 75.6 °F - 58.1 °F 55% 29.75 in 10.0 mi SE 10.4 mph - N/A   Clear
7:15 PM 73.8 °F - 58.1 °F 58% 29.75 in 10.0 mi SE 8.1 mph - N/A   Clear
7:35 PM 72.3 °F - 58.1 °F 61% 29.75 in 10.0 mi SE 6.9 mph - N/A   Clear
7:55 PM 71.1 °F - 58.5 °F 64% 29.75 in 10.0 mi SE 5.8 mph - N/A   Clear
8:15 PM 70.9 °F - 58.8 °F 66% 29.75 in 10.0 mi ESE 5.8 mph - N/A   Clear
8:35 PM 69.8 °F - 58.8 °F 68% 29.75 in 10.0 mi SE 4.6 mph - N/A   Clear
8:55 PM 69.1 °F - 58.8 °F 70% 29.76 in 10.0 mi SE 5.8 mph - N/A   Clear
9:15 PM 68.4 °F - 59.0 °F 72% 29.77 in 10.0 mi SE 5.8 mph - N/A   Clear
9:35 PM 68.0 °F - 59.0 °F 73% 29.78 in 10.0 mi SE 4.6 mph - N/A   Clear
9:55 PM 66.7 °F - 59.0 °F 76% 29.78 in 10.0 mi SE 5.8 mph - N/A   Clear
10:15 PM 67.3 °F - 59.5 °F 76% 29.79 in 10.0 mi SE 6.9 mph - N/A   Clear
10:35 PM 67.5 °F - 59.9 °F 77% 29.79 in 10.0 mi SE 8.1 mph - N/A   Clear
10:55 PM 67.8 °F - 59.9 °F 76% 29.78 in 10.0 mi SE 10.4 mph - N/A   Clear
11:15 PM 68.0 °F - 59.9 °F 75% 29.79 in 10.0 mi SE 9.2 mph 16.1 mph N/A   Clear
11:35 PM 67.3 °F - 59.9 °F 77% 29.79 in 10.0 mi SE 10.4 mph - N/A   Clear
11:55 PM 66.9 °F - 59.9 °F 78% 29.81 in 10.0 mi SE 6.9 mph - N/A   Clear